Location: Couloutre
(47.4081°N, 3.2259°E)
Time: 10:26:17
(UTC+00:00)

Meteor 1-13 Rocket - Pass Details

Date: 27 February 2020
Orbit: 829 x 913 km, 81.3° (Epoch: 29 March)

Event Time Altitude Azimuth Distance (km) Brightness Sun altitude
Rises 19:33:40 0° 349° (N) 3,533 7.7 -21.9°
Reaches altitude 10° 19:36:10 10° 350° (N) 2,578 7.0 -22.3°
Maximum altitude 19:42:03 81° 78° (ENE) 898 4.1 -23.3°
Enters shadow 19:44:41 34° 162° (SSE) 1,401 5.0 -23.7°
